Location: Ch�risy
(50.2331°N, 2.9131°E)
Time: 02:03:35
(UTC+00:00)

Meteor 2-13 Rocket - Pass Details

Date: 17 January 2021
Orbit: 936 x 957 km, 82.5° (Epoch: 28 February)

Event Time Altitude Azimuth Distance (km) Brightness Sun altitude
Rises 18:23:08 0° 175° (S) 3,599 7.5 -19.5°
Reaches altitude 10° 18:25:38 10° 171° (S) 2,662 6.8 -19.9°
Maximum altitude 18:31:35 59° 94° (E) 1,090 4.4 -20.9°
Drops below altitude 10° 18:37:37 10° 16° (NNE) 2,694 6.6 -21.8°
Sets 18:40:09 0° 13° (NNE) 3,647 7.3 -22.2°
